Des Moines, IA

9:47 PM CDT on March 27, 2017 (GMT -0500)
Des Moines International

Weather History for KDSM - April, 2014

Change the Weather History Date:

Friday, April 25, 2014

  Actual Average Record
Temperature  
Mean Temperature 61 °F 55 °F  
Max Temperature 79 °F 66 °F 90 °F (2012)
Min Temperature 42 °F 45 °F 28 °F (1934)
Degree Days  
Heating Degree Days 4 10  
Month to date heating degree days 357 365  
Since 1 July heating degree days 6594 5992  
Cooling Degree Days 0 1  
Month to date cooling degree days 12 8  
Year to date cooling degree days 12 9  
Growing Degree Days 10 (Base 50)    
Moisture  
Dew Point 39 °F    
Average Humidity 55    
Maximum Humidity 89    
Minimum Humidity 20    
Precipitation  
Precipitation 0.00 in 0.16 in 1.79 in (1904)
Month to date precipitation 2.81 3.07  
Year to date precipitation 5.78 7.65  
Snow  
Snow 0.00 in 0.00 in 0.10 in (1907)
Month to date snowfall 0.8 1.7  
Since 1 July snowfall 48.3 35.2  
Snow Depth 0.00 in    
Sea Level Pressure  
Sea Level Pressure 29.81 in    
Wind  
Wind Speed 7 mph (WSW)    
Max Wind Speed 21 mph    
Max Gust Speed 24 mph    
Visibility 10 miles    
Events      
T = Trace of Precipitation, MM = Missing Value Source: NWS Daily Summary

Daily Weather History Graph

Daily Weather History Graph

Search for Another Location

Airport or City:

Trip Planner

Search our weather history database for the weather conditions in past years. The results will help you decide how hot, cold, wet, or windy it might be!

Date:

Astronomy

Apr. 25, 2014 Rise Set
Actual Time 6:19 AM CDT 8:06 PM CDT
Civil Twilight 5:50 AM CDT 8:35 PM CDT
Nautical Twilight 5:14 AM CDT 9:11 PM CDT
Astronomical Twilight 4:35 AM CDT 9:50 PM CDT
Moon 4:11 AM CDT (4/25) 4:26 PM CDT (4/25)
Length of Visible Light 14h 45m
Length of Day
13h 46m
Waning Crescent, 15% of the Moon is Illuminated
Apr 25
Waning Crescent
Apr 29
New
May 6
First Quarter
May 14
Full
May 21
Last Quarter

Hourly Weather History & Observations

Time (CDT) Temp. Windchill Dew Point Humidity Pressure Visibility Wind Dir Wind Speed Gust Speed Precip Events Conditions
12:54 AM 46.9 °F - 42.1 °F 83% 29.82 in 10.0 mi WNW 3.5 mph - N/A   Clear
1:54 AM 45.0 °F 41.8 °F 41.0 °F 86% 29.82 in 10.0 mi WSW 5.8 mph - N/A   Clear
2:54 AM 44.1 °F 41.5 °F 39.0 °F 82% 29.82 in 10.0 mi WSW 4.6 mph - N/A   Clear
3:54 AM 43.0 °F 40.3 °F 39.0 °F 86% 29.83 in 10.0 mi WSW 4.6 mph - N/A   Clear
4:54 AM 43.0 °F 40.3 °F 39.9 °F 89% 29.83 in 10.0 mi SSW 4.6 mph - N/A   Clear
5:54 AM 43.0 °F 39.5 °F 39.9 °F 89% 29.83 in 10.0 mi SSW 5.8 mph - N/A   Clear
6:54 AM 44.6 °F 41.4 °F 41.0 °F 87% 29.84 in 9.0 mi SW 5.8 mph - N/A   Clear
7:54 AM 48.9 °F - 43.0 °F 80% 29.85 in 10.0 mi SW 5.8 mph - N/A   Partly Cloudy
8:54 AM 55.0 °F - 44.1 °F 67% 29.86 in 10.0 mi WNW 8.1 mph - N/A   Scattered Clouds
9:54 AM 61.0 °F - 43.0 °F 52% 29.86 in 10.0 mi Calm Calm - N/A   Mostly Cloudy
10:54 AM 69.1 °F - 39.0 °F 33% 29.85 in 10.0 mi NNW 4.6 mph - N/A   Partly Cloudy
11:54 AM 72.0 °F - 35.1 °F 26% 29.85 in 10.0 mi WSW 6.9 mph - N/A   Partly Cloudy
12:54 PM 73.9 °F - 37.0 °F 26% 29.83 in 10.0 mi SW 9.2 mph - N/A   Partly Cloudy
1:54 PM 75.0 °F - 37.0 °F 25% 29.82 in 10.0 mi SW 6.9 mph - N/A   Scattered Clouds
2:54 PM 77.0 °F - 34.0 °F 21% 29.80 in 10.0 mi WSW 5.8 mph - N/A   Scattered Clouds
3:54 PM 78.1 °F - 36.0 °F 22% 29.78 in 10.0 mi West 16.1 mph - N/A   Mostly Cloudy
4:54 PM 79.0 °F - 37.9 °F 23% 29.76 in 10.0 mi West 15.0 mph - N/A   Mostly Cloudy
5:54 PM 75.9 °F - 37.9 °F 25% 29.75 in 10.0 mi West 12.7 mph - N/A   Mostly Cloudy
6:54 PM 77.0 °F - 39.9 °F 26% 29.74 in 10.0 mi WNW 3.5 mph - N/A   Mostly Cloudy
7:54 PM 71.1 °F - 39.0 °F 31% 29.76 in 10.0 mi East 9.2 mph - N/A   Mostly Cloudy
8:54 PM 69.1 °F - 39.0 °F 33% 29.78 in 10.0 mi ENE 11.5 mph - N/A   Scattered Clouds
9:54 PM 66.0 °F - 37.9 °F 36% 29.80 in 10.0 mi ENE 8.1 mph - N/A   Scattered Clouds
10:54 PM 62.1 °F - 39.0 °F 43% 29.81 in 10.0 mi ENE 6.9 mph - N/A   Partly Cloudy
11:54 PM 60.8 °F - 39.2 °F 45% 29.82 in 10.0 mi ENE 5.8 mph - N/A   Clear